Location: Lansingburgh
(42.7845°N, 73.6696°W)
Time: 14:57:30
(UTC+00:00)

BREEZE-M DEB (TANK) - Pass Details

Date: 24 January 2020
Orbit: 323 x 14856 km, 49.5° (Epoch: 22 February)

Event Time Altitude Azimuth Distance (km) Brightness Sun altitude
Rises 23:02:25 0° 247° (WSW) 2,432 8.3 -12.1°
Reaches altitude 10° 23:04:34 10° 251° (WSW) 1,303 6.5 -12.5°
Maximum altitude 23:06:53 63° 334° (NNW) 368 2.2 -12.9°
Enters shadow 23:08:07 25° 50° (NE) 765 3.2 -13.1°
